This is the latest recevied weather packets stored in our database for station/object 4S6DRJ-13. If no packets are shown the sender has not sent any weather packets the latest 10 day(s).
| Time | Temp. | Humidity | Pressure | Rain* | Wind** | Luminosity | Snow |
|---|---|---|---|---|---|---|---|
| 1787834621 | 28.33° C | 81% | 1009.1 hPa | 0 mm | 0.45 m/s, 153° | 7 W/m² | - |
| 1787834560 | 28.33° C | 81% | 1009 hPa | 0 mm | 0.89 m/s, 224° | 8 W/m² | - |
| 1787834500 | 28.33° C | 81% | 1009.1 hPa | 0 mm | 1.79 m/s, 307° | 8 W/m² | - |
| 1787834438 | 28.89° C | 81% | 1009.1 hPa | 0 mm | 1.34 m/s, 290° | 9 W/m² | - |
| 1787834377 | 28.89° C | 81% | 1009 hPa | 0 mm | 1.34 m/s, 299° | 10 W/m² | - |
| 1787834316 | 28.89° C | 81% | 1009 hPa | 0 mm | 1.79 m/s, 203° | 11 W/m² | - |
| 1787834255 | 28.89° C | 81% | 1009 hPa | 0 mm | 0.89 m/s, 251° | 13 W/m² | - |
| 1787834194 | 28.89° C | 81% | 1009 hPa | 0 mm | 0.89 m/s, 251° | 14 W/m² | - |
| 1787834133 | 28.89° C | 81% | 1008.8 hPa | 0 mm | 0.45 m/s, 104° | 13 W/m² | - |
| 1787834072 | 28.89° C | 81% | 1008.9 hPa | 0 mm | 0.89 m/s, 258° | 12 W/m² | - |
| 1787834011 | 28.89° C | 81% | 1009 hPa | 0 mm | 0.89 m/s, 229° | 13 W/m² | - |
| 1787833950 | 28.89° C | 81% | 1009.1 hPa | 0 mm | 0.45 m/s, 256° | 14 W/m² | - |
| 1787833889 | 28.89° C | 81% | 1008.9 hPa | 0 mm | 0.45 m/s, 171° | 15 W/m² | - |
| 1787833828 | 28.89° C | 81% | 1008.9 hPa | 0 mm | 0.89 m/s, 236° | 15 W/m² | - |
| 1787833768 | 28.89° C | 81% | 1009 hPa | 0 mm | 1.79 m/s, 204° | 17 W/m² | - |
| 1787833706 | 28.89° C | 81% | 1009 hPa | 0 mm | 0 m/s | 20 W/m² | - |
| 1787833645 | 28.89° C | 81% | 1008.9 hPa | 0 mm | 0 m/s | 23 W/m² | - |
| 1787833584 | 28.89° C | 81% | 1009 hPa | 0 mm | 1.34 m/s, 182° | 27 W/m² | - |
| 1787833523 | 28.89° C | 80% | 1008.6 hPa | 0 mm | 1.79 m/s, 214° | 30 W/m² | - |
| 1787833463 | 28.89° C | 80% | 1008.8 hPa | 0 mm | 1.34 m/s, 243° | 32 W/m² | - |
| 1787833401 | 28.89° C | 80% | 1008.7 hPa | 0 mm | 2.24 m/s, 152° | 34 W/m² | - |
| 1787833340 | 28.89° C | 80% | 1008.8 hPa | 0 mm | 2.24 m/s, 258° | 36 W/m² | - |
| 1787833279 | 28.89° C | 80% | 1008.9 hPa | 0 mm | 0.45 m/s, 189° | 38 W/m² | - |
| 1787833218 | 28.89° C | 80% | 1008.8 hPa | 0 mm | 2.24 m/s, 240° | 41 W/m² | - |
| 1787833157 | 28.89° C | 80% | 1008.9 hPa | 0 mm | 1.34 m/s, 163° | 43 W/m² | - |
* Rain latest hour (hover to see other rain measurements)
** Current wind speed in m/s (hover to see current wind gust speed)